Weather History for Auburn-Lewiston, ME

Change the Weather History Date:

Sunday, February 12, 2012

  Actual Average Record
Temperature  
Mean Temperature 12 °F -  
Max Temperature 19 °F 29 °F 48 °F (1999)
Min Temperature 6 °F 10 °F -7 °F (2003)
Degree Days  
Heating Degree Days 52    
Moisture  
Dew Point -5 °F    
Average Humidity 48    
Maximum Humidity 63    
Minimum Humidity 38    
Precipitation  
Precipitation 0.00 in - - ()
Sea Level Pressure  
Sea Level Pressure 29.62 in    
Wind  
Wind Speed 13 mph (NW)    
Max Wind Speed 18 mph    
Max Gust Speed 31 mph    
Visibility 10 miles    
Events      
Averages and records for this station are not official NWS values.
T = Trace of Precipitation, MM = Missing Value Source: NWS Daily Summary

Daily Weather History Graph

Daily Weather History Graph

Search for Another Location

Airport:

Trip Planner

Search our weather history database for the weather conditions in past years. The results will help you decide how hot, cold, wet, or windy it might be!

Date:

Astronomy

Feb. 12, 2012 Rise Set
Actual Time 6:45 AM EST 5:05 PM EST
Civil Twilight 6:15 AM EST 5:35 PM EST
Nautical Twilight 5:41 AM EST 6:09 PM EST
Astronomical Twilight 5:08 AM EST 6:43 PM EST
Moon 11:16 PM EST (2/12) 8:47 AM EST (2/12)
Length of Visible Light 11h 20m
Length of Day
10h 20m
Waning Gibbous, 72% of the Moon is Illuminated
Feb 12
Waning Gibbous
Feb 14
Last Quarter
Feb 21
New
Feb 29
First Quarter
Mar 8
Full

Hourly Weather History & Observations

Time (EST) Temp. Windchill Dew Point Humidity Pressure Visibility Wind Dir Wind Speed Gust Speed Precip Events Conditions
12:15 AM 19.4 °F 5.5 °F 6.8 °F 58% - 10.0 mi NW 15.0 mph 21.9 mph N/A   Clear
12:35 AM 17.6 °F 2.7 °F 6.8 °F 63% 29.56 in 10.0 mi NW 16.1 mph 26.5 mph N/A   Clear
12:55 AM 17.6 °F 2.7 °F 5.0 °F 58% - 10.0 mi NNW 16.1 mph 27.6 mph N/A   Clear
1:15 AM 17.6 °F 2.7 °F 3.2 °F 53% 29.55 in 10.0 mi NW 16.1 mph 23.0 mph N/A   Clear
1:35 AM 15.8 °F 0.9 °F 1.4 °F 53% 29.55 in 10.0 mi NNW 15.0 mph 25.3 mph N/A   Clear
1:55 AM 15.8 °F 3.4 °F 1.4 °F 53% 29.55 in 10.0 mi NW 10.4 mph 25.3 mph N/A   Clear
2:15 AM 15.8 °F 0.3 °F 1.4 °F 53% 29.55 in 10.0 mi NNW 16.1 mph 21.9 mph N/A   Clear
2:35 AM 14.0 °F -0.2 °F 1.4 °F 57% 29.56 in 10.0 mi NNW 12.7 mph 23.0 mph N/A   Clear
2:55 AM 14.0 °F -0.8 °F 1.4 °F 57% 29.56 in 10.0 mi NW 13.8 mph - N/A   Clear
3:15 AM 12.2 °F -4.8 °F -2.2 °F 53% 29.56 in 10.0 mi NW 17.3 mph 27.6 mph N/A   Clear
3:35 AM 12.2 °F -4.8 °F -4.0 °F 48% 29.56 in 10.0 mi NW 17.3 mph 25.3 mph N/A   Clear
3:55 AM 12.2 °F -1.8 °F -5.8 °F 45% - 10.0 mi NW 11.5 mph 21.9 mph N/A   Clear
4:15 AM 10.4 °F -5.4 °F -7.6 °F 44% - 10.0 mi NNW 13.8 mph 20.7 mph N/A   Clear
4:35 AM 10.4 °F -7.2 °F -7.6 °F 44% - 10.0 mi NNW 17.3 mph 24.2 mph N/A   Clear
4:55 AM 10.4 °F -2.4 °F -7.6 °F 44% - 10.0 mi NNW 9.2 mph 16.1 mph N/A   Clear
5:15 AM 10.4 °F -4.8 °F -9.4 °F 41% 29.57 in 10.0 mi NNW 12.7 mph 19.6 mph N/A   Clear
5:35 AM 10.4 °F -2.4 °F -7.6 °F 44% 29.57 in 10.0 mi NW 9.2 mph 16.1 mph N/A   Clear
5:55 AM 8.6 °F -5.5 °F -9.4 °F 44% 29.57 in 10.0 mi NW 10.4 mph - N/A   Clear
6:15 AM 8.6 °F -7.7 °F -7.6 °F 48% 29.57 in 10.0 mi NW 13.8 mph - N/A   Clear
6:35 AM 8.6 °F -4.7 °F -7.6 °F 48% 29.58 in 10.0 mi NW 9.2 mph - N/A   Clear
6:55 AM 8.6 °F -2.6 °F -7.6 °F 48% 29.58 in 10.0 mi NW 6.9 mph - N/A   Clear
7:15 AM 8.6 °F -1.3 °F -7.6 °F 48% 29.59 in 10.0 mi WNW 5.8 mph - N/A   Clear
7:35 AM 8.6 °F -4.7 °F -5.8 °F 52% 29.60 in 10.0 mi NW 9.2 mph - N/A   Clear
7:55 AM 8.6 °F -3.7 °F -5.8 °F 52% 29.60 in 10.0 mi NW 8.1 mph - N/A   Clear
8:16 AM 10.4 °F -6.0 °F -5.8 °F 48% 29.61 in 10.0 mi NW 15.0 mph 20.7 mph N/A   Clear
8:35 AM 10.4 °F -1.5 °F -4.0 °F 52% 29.60 in 10.0 mi WNW 8.1 mph - N/A   Clear
8:55 AM 10.4 °F -2.4 °F -5.8 °F 48% 29.60 in 10.0 mi NNW 9.2 mph - N/A   Clear
9:15 AM 12.2 °F -1.8 °F -2.2 °F 53% 29.60 in 10.0 mi NNW 11.5 mph - N/A   Clear
9:35 AM 12.2 °F -2.5 °F -2.2 °F 53% 29.61 in 10.0 mi NNW 12.7 mph - N/A   Clear
9:55 AM 12.2 °F -1.8 °F -4.0 °F 48% 29.61 in 10.0 mi WNW 11.5 mph 16.1 mph N/A   Clear
10:15 AM 14.0 °F 0.5 °F -4.0 °F 45% 29.61 in 10.0 mi WNW 11.5 mph 19.6 mph N/A   Clear
10:35 AM 14.0 °F -0.8 °F -2.2 °F 49% 29.61 in 10.0 mi NW 13.8 mph 17.3 mph N/A   Clear
10:55 AM 14.0 °F -0.2 °F -5.8 °F 41% 29.61 in 10.0 mi NW 12.7 mph - N/A   Clear
11:15 AM 15.8 °F 2.7 °F -2.2 °F 45% 29.60 in 10.0 mi WNW 11.5 mph 16.1 mph N/A   Clear
11:35 AM 15.8 °F 2.1 °F -4.0 °F 41% 29.60 in 10.0 mi NNW 12.7 mph 18.4 mph N/A   Clear
11:55 AM 15.8 °F 0.3 °F -4.0 °F 41% 29.60 in 10.0 mi WNW 16.1 mph 25.3 mph N/A   Clear
12:15 PM 15.8 °F 1.4 °F -4.0 °F 41% 29.59 in 10.0 mi NNW 13.8 mph 18.4 mph N/A   Clear
12:35 PM 15.8 °F -0.6 °F -2.2 °F 45% 29.58 in 10.0 mi North 18.4 mph 21.9 mph N/A   Clear
12:55 PM 15.8 °F 0.9 °F -5.8 °F 38% 29.58 in 10.0 mi NW 15.0 mph 26.5 mph N/A   Partly Cloudy
1:15 PM 15.8 °F 0.3 °F -2.2 °F 45% 29.58 in 10.0 mi NNW 16.1 mph 24.2 mph N/A   Scattered Clouds
1:35 PM 15.8 °F 1.4 °F -2.2 °F 45% 29.58 in 10.0 mi NW 13.8 mph 24.2 mph N/A   Partly Cloudy
2:15 PM 14.0 °F -2.5 °F -5.8 °F 41% 29.58 in 10.0 mi NW 17.3 mph 25.3 mph N/A   Partly Cloudy
2:35 PM 14.0 °F -3.0 °F -5.8 °F 41% 29.59 in 10.0 mi NNW 18.4 mph 25.3 mph N/A   Partly Cloudy
2:55 PM 12.2 °F -3.1 °F -7.6 °F 41% 29.59 in 10.0 mi NW 13.8 mph 25.3 mph N/A   Clear
3:15 PM 12.2 °F -5.3 °F -7.6 °F 41% 29.60 in 10.0 mi NW 18.4 mph 31.1 mph N/A   Clear
3:35 PM 12.2 °F -5.3 °F -7.6 °F 41% 29.61 in 10.0 mi NW 18.4 mph 28.8 mph N/A   Clear
4:15 PM 10.4 °F -6.0 °F -9.4 °F 41% 29.63 in 10.0 mi NW 15.0 mph 25.3 mph N/A   Clear
4:35 PM 10.4 °F -6.0 °F -7.6 °F 44% 29.65 in 10.0 mi NW 15.0 mph 20.7 mph N/A   Clear
4:55 PM 10.4 °F -4.8 °F -9.4 °F 41% 29.65 in 10.0 mi NW 12.7 mph - N/A   Clear
5:15 PM 8.6 °F -7.0 °F -9.4 °F 44% 29.66 in 10.0 mi NW 12.7 mph - N/A   Clear
5:35 PM 8.6 °F -4.7 °F -9.4 °F 44% 29.68 in 10.0 mi NW 9.2 mph 18.4 mph N/A   Clear
6:15 PM 8.6 °F -1.3 °F -7.6 °F 48% 29.71 in 10.0 mi NW 5.8 mph - N/A   Clear
6:35 PM 8.6 °F -2.6 °F -7.6 °F 48% 29.72 in 10.0 mi NNW 6.9 mph - N/A   Clear
6:55 PM 8.6 °F -6.3 °F -7.6 °F 48% 29.73 in 10.0 mi NNW 11.5 mph 16.1 mph N/A   Clear
7:15 PM 6.8 °F -11.8 °F -9.4 °F 48% 29.75 in 10.0 mi NW 17.3 mph 21.9 mph N/A   Clear
7:35 PM 6.8 °F -9.3 °F -7.6 °F 52% 29.75 in 10.0 mi NW 12.7 mph - N/A   Clear
7:55 PM 6.8 °F -2.0 °F -9.4 °F 48% 29.76 in 10.0 mi WNW 4.6 mph 20.7 mph N/A   Partly Cloudy
8:15 PM 6.8 °F -6.9 °F -7.6 °F 52% 29.76 in 10.0 mi NW 9.2 mph - N/A   Clear
8:35 PM 6.8 °F -5.9 °F -9.4 °F 48% 29.77 in 10.0 mi WNW 8.1 mph - N/A   Clear
8:55 PM 6.8 °F -6.9 °F -7.6 °F 52% 29.77 in 10.0 mi WNW 9.2 mph - N/A   Clear
9:15 PM 6.8 °F -6.9 °F -9.4 °F 48% 29.78 in 10.0 mi NW 9.2 mph - N/A   Clear
9:35 PM 6.8 °F -0.1 °F -7.6 °F 52% 29.78 in 10.0 mi West 3.5 mph - N/A   Partly Cloudy
9:55 PM 6.8 °F -3.5 °F -7.6 °F 52% 29.77 in 10.0 mi WNW 5.8 mph - N/A   Scattered Clouds
10:15 PM 8.6 °F -7.0 °F -7.6 °F 48% 29.77 in 10.0 mi NW 12.7 mph 19.6 mph N/A   Mostly Cloudy
10:35 PM 6.8 °F -5.9 °F -7.6 °F 52% 29.77 in 10.0 mi WNW 8.1 mph - N/A   Partly Cloudy
10:55 PM 6.8 °F -2.0 °F -7.6 °F 52% 29.78 in 10.0 mi SSW 4.6 mph - N/A   Clear
11:15 PM 6.8 °F -0.1 °F -7.6 °F 52% 29.78 in 10.0 mi WSW 3.5 mph - N/A   Clear
11:35 PM 6.8 °F -0.1 °F -7.6 °F 52% 29.78 in 10.0 mi South 3.5 mph - N/A   Clear